"Pseudo-MPEC" for P21Crqv

Created 2022 Dec 22 20:22:18 UT using Find_Orb

Click here for an explanation of pseudo-MPECs

 
 Astrometry: 
     P21Crqv* C2022 12 02FXtNo(MAstrometry-(IT9Yredacted;MhK3bclick(hereCc5CNF52
     P21Crqv  C2022 12 02gXe,forX@,6;explanationZ+Cb9KeGDN,IaHR_1Rt/'bAFHyfTjF52

Station data:
(F52) Pan-STARRS 2, Haleakala  (N20.707382 W156.255910)  US/Hawaii.
   Observers J. Bulger, T. Dukes, T. Lowe, A. Schultz, M. Willman. Measurers
   K. Chambers, S. Chastel, T. de Boer, L. Denneau, J. Fairlamb, H.
   Flewelling, M. Huber, C.-C. Lin, E. Magnier, Y. Ramanjooloo, R. Wainscoat,
   R. Weryk. 1.8-m Ritchey-Chrétien + CCD.

Orbital elements:  P21Crqv
   Perihelion 2022 Oct 4.36310 +/- 82.2 TT =  8:42:51 (JD 2459856.86310)
Epoch 2022 Dec  3.0 TT = JDT 2459916.5   Earth MOID: 0.3933   Ma: 0.0370
M  22.50081649 +/- 25               (J2000 ecliptic)             AutoNEOCP
n   0.37729688 +/- 0.279            Peri.    8.19343 +/- 100
a   1.89676664 +/- 0.934            Node    29.70756 +/- 50
e   0.2694415 +/- 0.268             Incl.   24.48047 +/- 15
P   2.61/954.14d           H 20.89  G  0.15   U 11.9  SR
q 1.38569889 +/- 0.597    Q 2.40783439 +/- 42.2
From 2 observations 2022 Dec. 2 (33.2 min); mean residual 0".00
Residuals in arcseconds: 
221202 F52  .00   .01+    221202 F52  .00   .01+    

Ephemerides (geocentric):
Date (UTC) HH   RA             Dec           delta  r     elong  mag " sig PA
---- --------  ------------   ------------  ------ ------ -----  --- --------
2022 12 22 20  04 04 59.657   +73 26 33.79  .68740 1.5046 127.5 22.3  39d 107
2022 12 22 21  04 04 53.243   +73 26 28.45  .68761 1.5047 127.5 22.3  39d 107
2022 12 22 22  04 04 46.846   +73 26 23.02  .68782 1.5048 127.5 22.3  39d 107
2022 12 22 23  04 04 40.467   +73 26 17.51  .68804 1.5049 127.5 22.3  39d 107
2022 12 23 00  04 04 34.104   +73 26 11.92  .68825 1.5050 127.5 22.4  39d 107
2022 12 23 01  04 04 27.760   +73 26 06.24  .68847 1.5052 127.5 22.4  39d 107
2022 12 23 02  04 04 21.432   +73 26 00.48  .68868 1.5053 127.4 22.4  39d 107
2022 12 23 03  04 04 15.123   +73 25 54.64  .68890 1.5054 127.4 22.4  39d 107
2022 12 23 04  04 04 08.830   +73 25 48.72  .68911 1.5055 127.4 22.4  39d 107
2022 12 23 05  04 04 02.555   +73 25 42.71  .68933 1.5056 127.4 22.4  39d 107
2022 12 23 06  04 03 56.298   +73 25 36.61  .68954 1.5057 127.4 22.4  39d 107
2022 12 23 07  04 03 50.059   +73 25 30.44  .68976 1.5058 127.4 22.4  39d 107
2022 12 23 08  04 03 43.837   +73 25 24.18  .68998 1.5059 127.4 22.4  39d 107
2022 12 23 09  04 03 37.632   +73 25 17.84  .69019 1.5061 127.4 22.4  39d 107
2022 12 23 10  04 03 31.445   +73 25 11.42  .69041 1.5062 127.4 22.4  39d 107
2022 12 23 11  04 03 25.276   +73 25 04.92  .69062 1.5063 127.3 22.4  39d 107
2022 12 23 12  04 03 19.125   +73 24 58.34  .69084 1.5064 127.3 22.4  39d 107
2022 12 23 13  04 03 12.992   +73 24 51.67  .69106 1.5065 127.3 22.4  39d 107
2022 12 23 14  04 03 06.876   +73 24 44.92  .69127 1.5066 127.3 22.4  39d 107
2022 12 23 15  04 03 00.778   +73 24 38.10  .69149 1.5067 127.3 22.4  39d 107
2022 12 23 16  04 02 54.698   +73 24 31.19  .69171 1.5069 127.3 22.4  39d 107
2022 12 23 17  04 02 48.636   +73 24 24.20  .69192 1.5070 127.3 22.4  39d 107
2022 12 23 18  04 02 42.591   +73 24 17.13  .69214 1.5071 127.3 22.4  39d 107
2022 12 23 19  04 02 36.565   +73 24 09.98  .69236 1.5072 127.3 22.4  39d 107
2022 12 23 20  04 02 30.556   +73 24 02.75  .69258 1.5073 127.2 22.4  39d 107
2022 12 23 21  04 02 24.566   +73 23 55.45  .69279 1.5074 127.2 22.4  39d 107
2022 12 23 22  04 02 18.593   +73 23 48.06  .69301 1.5075 127.2 22.4  39d 107
2022 12 23 23  04 02 12.639   +73 23 40.59  .69323 1.5077 127.2 22.4  39d 107
2022 12 24 00  04 02 06.702   +73 23 33.05  .69345 1.5078 127.2 22.4  39d 107
2022 12 24 01  04 02 00.784   +73 23 25.42  .69366 1.5079 127.2 22.4  39d 107
2022 12 24 02  04 01 54.884   +73 23 17.72  .69388 1.5080 127.2 22.4  39d 107
2022 12 24 03  04 01 49.002   +73 23 09.94  .69410 1.5081 127.2 22.4  39d 107
2022 12 24 04  04 01 43.137   +73 23 02.08  .69432 1.5082 127.2 22.4  39d 107
2022 12 24 05  04 01 37.292   +73 22 54.14  .69454 1.5083 127.1 22.4  39d 107
2022 12 24 06  04 01 31.464   +73 22 46.12  .69476 1.5085 127.1 22.4  39d 107
2022 12 24 07  04 01 25.654   +73 22 38.03  .69498 1.5086 127.1 22.4  39d 107
2022 12 24 08  04 01 19.863   +73 22 29.86  .69520 1.5087 127.1 22.4  39d 107
2022 12 24 09  04 01 14.090   +73 22 21.61  .69542 1.5088 127.1 22.4  39d 107
2022 12 24 10  04 01 08.335   +73 22 13.28  .69563 1.5089 127.1 22.4  39d 107
2022 12 24 11  04 01 02.598   +73 22 04.88  .69585 1.5090 127.1 22.4  39d 107
2022 12 24 12  04 00 56.880   +73 21 56.40  .69607 1.5092 127.1 22.4  39d 107
2022 12 24 13  04 00 51.180   +73 21 47.85  .69629 1.5093 127.1 22.4  39d 107
2022 12 24 14  04 00 45.499   +73 21 39.22  .69651 1.5094 127.0 22.4  39d 107
2022 12 24 15  04 00 39.836   +73 21 30.51  .69673 1.5095 127.0 22.4  39d 107
2022 12 24 16  04 00 34.191   +73 21 21.72  .69695 1.5096 127.0 22.4  39d 107
2022 12 24 17  04 00 28.565   +73 21 12.87  .69717 1.5097 127.0 22.4  39d 107
2022 12 24 18  04 00 22.957   +73 21 03.93  .69740 1.5098 127.0 22.4  39d 107
2022 12 24 19  04 00 17.367   +73 20 54.92  .69762 1.5100 127.0 22.4  39d 107